Regional Weather Roundup
Issued by NWS

Home | Current Version | Previous Version | Graphics & Text | Print | Product List | Glossary On
Versions: 1 2 3 4 5 6 7 8 9 10 11 12 13 14 15 16 17 18 19 20 21 22 23 24 25 26 27 28 29 30 31 32 33 34 35 36 37 38 39 40 41 42 43 44 45 46 47 48 49 50
000
ASUS44 KMEG 031500
RWRTN
TENNESSEE HOURLY STATE WEATHER ROUNDUP
NATIONAL WEATHER SERVICE MEMPHIS TN
900 AM CST TUE MAR 03 2015

TNZ002-004-019-021-049-052-054-088>092-031600-
WEST TENNESSEE

CITY           SKY/WX    TMP DP  RH WIND       PRES   REMARKS
MEMPHIS INTL   DRZL/FOG  50  49  96 S10       30.07S VSB 1/2
NWS MEMPHIS      N/A     49 N/A N/A MISG        N/A
JACKSON        CLOUDY    51  48  89 S9G20     30.07S
DYERSBURG      CLOUDY    46  34  61 CALM      30.06F
UNION CITY     CLOUDY    43  43 100 S12       30.02F VSB 1/4
PARIS          CLOUDY    45  45 100 S8        30.05S
LEXINGTON      CLOUDY    48  48 100 S6        30.07F
SAVANNAH       CLOUDY    52  52 100 S10       30.10S
$$

TNZ008-025-027-028-033-062-065-066-031600-
NORTH MIDDLE TENNESSEE

CITY           SKY/WX    TMP DP  RH WIND       PRES   REMARKS
NASHVILLE      CLOUDY    51  48  89 S8        30.10F
CLARKSVILLE    CLOUDY    49  46  90 S9        30.04F
COOKEVILLE       N/A     54  48  82 S8        30.11F
CROSSVILLE     CLOUDY    50  48  93 VRB7      30.16S
$$

TNZ061-075-076-078-094-096-097-031600-
SOUTH MIDDLE TENNESSEE

CITY           SKY/WX    TMP DP  RH WIND       PRES   REMARKS
FAYETTEVILLE   CLOUDY    48  46  93 S8          N/A  VSB 1/4
TULLAHOMA      CLOUDY    48  48 100 S5        30.15F
WINCHESTER     CLOUDY    50  48  93 SE9       30.17S
COLUMBIA       CLOUDY   N/A N/A N/A S7        30.10R
SHELBYVILLE    CLOUDY    52  52 100 S10       30.14F
$$

TNZ017-018-042-046-047-031600-
NORTHEAST TENNESSEE

CITY           SKY/WX    TMP DP  RH WIND       PRES   REMARKS
TRI CITIES     CLOUDY    43  33  68 CALM      30.20F
ELIZABETHTON   CLOUDY    46  39  76 E7        30.20S
$$

TNZ012-013-036-069-073-074-031600-
CENTRAL EAST TENNESSEE

CITY           SKY/WX    TMP DP  RH WIND       PRES   REMARKS
KNOXVILLE      NOT AVBL
OAK RIDGE      CLOUDY    42  40  92 CALM      30.22F FOG
GATLINBURG     CLOUDY    43  39  87 N3        30.20R
$$

TNZ083-085-099-031600-
SOUTHEAST TENNESSEE

CITY           SKY/WX    TMP DP  RH WIND       PRES   REMARKS
CHATTANOOGA    DRIZZLE   46  44  93 S6        30.22F FOG
$$

SKY/WX REPORTED AS FAIR MEANS FEW OR NO CLOUDS BELOW
12 THOUSAND FEET.




USA.gov is the U.S. government's official web portal to all federal, state and local government web resources and services.